Time,TemperatureF,DewpointF,PressureIn,WindDirection,WindDirectionDegrees,WindSpeedMPH,WindSpeedGustMPH,Humidity,HourlyPrecipIn,Conditions,Clouds,dailyrainin,SoftwareType,DateUTC
2013-01-13 12:44:00,32.8,31.0,29.72,West,277,0.0,1.0,94,0.00,,,0.00,weatherlink.com 1.10,2013-01-13 21:44:00,
2013-01-13 12:59:00,32.5,31.0,29.72,East,95,0.0,0.0,94,0.00,,,0.00,weatherlink.com 1.10,2013-01-13 21:59:00,
2013-01-13 13:14:00,32.5,31.0,29.70,North,352,0.0,1.0,94,0.00,,,0.00,weatherlink.com 1.10,2013-01-13 22:14:00,
2013-01-13 13:29:00,32.7,31.0,29.70,West,281,0.0,1.0,93,0.00,,,0.00,weatherlink.com 1.10,2013-01-13 22:29:00,
2013-01-13 13:44:00,32.3,31.0,29.69,WNW,287,0.0,1.0,94,0.00,,,0.00,weatherlink.com 1.10,2013-01-13 22:44:00,
2013-01-13 13:59:00,32.4,31.0,29.70,East,96,0.0,1.0,94,0.00,,,0.00,weatherlink.com 1.10,2013-01-13 22:59:00,
2013-01-13 14:14:00,32.5,31.0,29.70,East,92,0.0,1.0,94,0.00,,,0.00,weatherlink.com 1.10,2013-01-13 23:14:00,
2013-01-13 14:29:00,32.3,31.0,29.70,NNW,335,0.0,0.0,94,0.00,,,0.00,weatherlink.com 1.10,2013-01-13 23:29:00,
2013-01-13 14:44:00,32.3,31.0,29.69,NNE,15,0.0,0.0,94,0.00,,,0.00,weatherlink.com 1.10,2013-01-13 23:44:00,
2013-01-13 14:59:00,32.3,31.0,29.70,North,352,0.0,0.0,94,0.00,,,0.00,weatherlink.com 1.10,2013-01-13 23:59:00,
2013-01-13 15:14:00,32.2,31.0,29.69,North,352,0.0,0.0,94,0.00,,,0.00,weatherlink.com 1.10,2013-01-14 00:14:00,
2013-01-13 15:29:00,31.9,30.0,29.68,North,352,0.0,0.0,94,0.00,,,0.00,weatherlink.com 1.10,2013-01-14 00:29:00,
2013-01-13 15:44:00,31.9,30.0,29.68,North,352,0.0,0.0,94,0.00,,,0.00,weatherlink.com 1.10,2013-01-14 00:44:00,
2013-01-13 15:59:00,32.1,31.0,29.67,NNW,333,0.0,1.0,95,0.00,,,0.00,weatherlink.com 1.10,2013-01-14 00:59:00,
2013-01-13 16:14:00,32.3,31.0,29.67,WSW,255,0.0,0.0,94,0.00,,,0.00,weatherlink.com 1.10,2013-01-14 01:14:00,
2013-01-13 16:29:00,32.3,31.0,29.68,WSW,257,0.0,1.0,94,0.00,,,0.00,weatherlink.com 1.10,2013-01-14 01:29:00,
2013-01-13 16:44:00,32.2,31.0,29.68,WSW,257,0.0,0.0,94,0.00,,,0.00,weatherlink.com 1.10,2013-01-14 01:44:00,
2013-01-13 17:00:00,32.0,31.0,29.67,WSW,257,0.0,0.0,94,0.00,,,0.00,weatherlink.com 1.10,2013-01-14 02:00:00,
2013-01-13 17:15:00,32.0,31.0,29.66,WSW,257,0.0,0.0,94,0.00,,,0.00,weatherlink.com 1.10,2013-01-14 02:15:00,
2013-01-13 17:31:00,31.9,30.0,29.65,WSW,257,0.0,0.0,94,0.00,,,0.00,weatherlink.com 1.10,2013-01-14 02:31:00,
2013-01-13 17:45:00,32.1,31.0,29.64,WSW,257,0.0,0.0,94,0.00,,,0.00,weatherlink.com 1.10,2013-01-14 02:45:00,
2013-01-13 18:00:00,31.8,31.0,29.65,West,259,0.0,1.0,95,0.00,,,0.00,weatherlink.com 1.10,2013-01-14 03:00:00,
2013-01-13 18:15:00,32.1,31.0,29.64,West,259,0.0,0.0,95,0.00,,,0.00,weatherlink.com 1.10,2013-01-14 03:15:00,
2013-01-13 18:30:00,32.4,31.0,29.64,West,274,0.0,0.0,94,0.00,,,0.00,weatherlink.com 1.10,2013-01-14 03:30:00,
2013-01-13 18:45:00,32.4,31.0,29.63,ENE,64,0.0,0.0,93,0.00,,,0.00,weatherlink.com 1.10,2013-01-14 03:45:00,
2013-01-13 19:00:00,32.5,31.0,29.63,ENE,64,0.0,0.0,94,0.00,,,0.00,weatherlink.com 1.10,2013-01-14 04:00:00,
2013-01-13 19:15:00,32.7,31.0,29.62,ENE,60,0.0,1.0,93,0.00,,,0.00,weatherlink.com 1.10,2013-01-14 04:15:00,
2013-01-13 19:30:00,32.7,31.0,29.63,ENE,60,0.0,0.0,93,0.00,,,0.00,weatherlink.com 1.10,2013-01-14 04:30:00,
2013-01-13 19:45:00,32.8,31.0,29.63,ENE,60,0.0,1.0,94,0.00,,,0.00,weatherlink.com 1.10,2013-01-14 04:45:00,
2013-01-13 20:15:00,32.8,31.0,29.62,ENE,60,0.0,0.0,94,0.00,,,0.00,weatherlink.com 1.10,2013-01-14 05:15:00,
2013-01-13 20:30:00,34.4,32.0,29.62,ENE,69,0.0,1.0,90,0.00,,,0.00,weatherlink.com 1.10,2013-01-14 05:30:00,
2013-01-13 20:46:00,34.9,32.0,29.61,ESE,117,0.0,1.0,88,0.00,,,0.00,weatherlink.com 1.10,2013-01-14 05:46:00,
2013-01-13 21:01:00,35.7,32.0,29.60,East,95,0.0,1.0,86,0.00,,,0.00,weatherlink.com 1.10,2013-01-14 06:01:00,
2013-01-13 21:16:00,34.9,31.0,29.60,WNW,294,0.0,1.0,87,0.00,,,0.00,weatherlink.com 1.10,2013-01-14 06:16:00,
2013-01-13 21:31:00,36.2,32.0,29.60,WSW,242,0.0,1.0,83,0.00,,,0.00,weatherlink.com 1.10,2013-01-14 06:31:00,
2013-01-13 21:46:00,34.1,32.0,29.60,NNW,331,0.0,1.0,90,0.00,,,0.00,weatherlink.com 1.10,2013-01-14 06:46:00,
2013-01-13 22:01:00,34.0,31.0,29.60,ENE,70,0.0,0.0,90,0.00,,,0.00,weatherlink.com 1.10,2013-01-14 07:01:00,
2013-01-13 22:16:00,33.7,31.0,29.59,ENE,77,0.0,0.0,91,0.00,,,0.00,weatherlink.com 1.10,2013-01-14 07:16:00,
2013-01-13 22:31:00,33.7,32.0,29.57,SE,137,0.0,1.0,92,0.00,,,0.00,weatherlink.com 1.10,2013-01-14 07:31:00,
2013-01-13 22:46:00,34.5,32.0,29.56,ENE,77,0.0,2.0,91,0.00,,,0.00,weatherlink.com 1.10,2013-01-14 07:46:00,
2013-01-13 23:01:00,35.8,33.0,29.56,ENE,65,0.0,2.0,89,0.00,,,0.00,weatherlink.com 1.10,2013-01-14 08:01:00,
2013-01-13 23:16:00,36.5,33.0,29.56,ESE,115,0.0,2.0,88,0.00,,,0.00,weatherlink.com 1.10,2013-01-14 08:16:00,
2013-01-13 23:31:00,36.1,33.0,29.55,SSW,203,0.0,1.0,88,0.00,,,0.00,weatherlink.com 1.10,2013-01-14 08:31:00,
2013-01-13 23:46:00,35.3,33.0,29.54,East,82,0.0,1.0,91,0.00,,,0.00,weatherlink.com 1.10,2013-01-14 08:46:00,